OK4PZ-4 Weather Reports


time (UTC)temp
C
wind
direction
speed
KPH
gust
KPH
rain 1hr
cm
rain 24hr
cm
rain mn
cm
humidity
%
barometer
mb
20260507141907 22 270 6.4 6.4 0.00 0.00 0.00 41 1009.5
20260507131308 23 297 8.0 11.3 0.00 0.00 0.00 39 1009.8
20260507121102 21 309 6.4 16.1 0.00 0.00 0.00 46 1009.8
20260507120709 20 292 9.7 16.1 0.00 0.00 0.00 47 1009.9
20260507110503 18 296 9.7 17.7 0.00 0.00 0.00 51 1010.0
20260507095903 19 278 11.3 17.7 0.00 0.00 0.00 51 1009.8
20260507085306 20 335 6.4 16.1 0.00 0.00 0.00 52 1009.2
20260507074705 18 312 8.0 20.9 0.00 0.00 0.00 54 1008.9
20260507064458 15 211 6.4 16.1 0.00 0.00 0.00 100 1009.0
20260507064106 15 289 12.9 16.1 0.00 0.00 0.00 100 1009.1
20260507053859 13 184 8.0 11.3 0.00 0.00 0.00 100 1008.8
20260507053507 13 112 1.6 1.6 0.00 0.00 0.00 100 1008.8
20260507043340 11 135 1.6 1.6 0.00 0.00 0.00 100 1008.0
20260507042947 12 118 0.0 0.0 0.00 0.00 0.00 100 1008.0
20260507032820 12 283 6.4 12.9 0.00 0.00 0.00 100 1007.5
20260507032427 12 114 1.6 1.6 0.00 0.00 0.00 100 1007.4
20260507022300 13 270 3.2 6.4 0.00 0.00 0.00 100 1007.1
20260507021907 13 112 0.0 0.0 0.00 0.00 0.00 100 1007.0
20260507011840 13 337 4.8 9.7 0.00 0.00 0.00 100 1006.6
20260507011740 13 337 4.8 9.7 0.00 0.00 0.00 100 1006.6
20260507011347 13 122 1.6 1.6 0.00 0.00 0.00 100 1006.5
20260507001220 14 292 4.8 17.7 0.00 0.00 0.00 100 1006.3
20260507000828 13 114 3.2 3.2 0.00 0.00 0.00 100 1006.2
20260506230702 14 180 0.0 4.8 0.00 0.00 0.00 100 1005.9
20260506230309 14 112 0.0 0.0 0.00 0.00 0.00 100 1005.9
20260506220227 13 270 4.8 8.0 0.00 0.00 0.00 100 1005.0
20260506215834 13 310 6.4 9.7 0.00 0.00 0.00 100 1005.1
20260506205629 13 177 4.8 6.4 0.00 0.00 0.00 1004.3
20260506205235 13 112 0.0 0.0 0.00 0.00 0.00 100 1004.0
20260506205231 13 112 0.0 0.0 0.00 0.00 0.00 100 1004.1
20260506195104 14 315 11.3 12.9 0.00 0.00 0.00 100 1003.5
20260506194712 14 111 0.0 0.0 0.00 0.00 0.00 100 1003.5
20260506184307 18 270 8.0 17.7 0.00 0.00 0.00 72 1002.0
20260506174101 22 256 14.5 16.1 0.00 0.00 0.00 42 999.8
20260506173708 23 268 12.9 16.1 0.00 0.00 0.00 38 999.7
20260506163501 26 188 11.3 11.3 0.00 0.00 0.00 26 999.5
20260506152902 30 238 4.8 9.7 0.00 0.00 0.00 22 1000.3